{"data":{"norad_id":65683,"intl_designator":"2025-212H","name":"STARLINK-34886","alt_names":[],"object_type":"PAYLOAD","status":"ACTIVE","operator":null,"country":"US","launch_date":"2025-09-21","launch_site_code":"AFETR","launch_vehicle":null,"mission":null,"orbit_class":"UNKNOWN","rcs_meters":null,"size_class":null,"mass_kg":null,"dimensions":null,"purposes":["comms"],"wikipedia_slug":null,"has_3d_model":false,"image_url":null,"decayed_at":null,"tle_current":{"epoch":"2026-05-24T23:06:15.443136Z","epoch_age_seconds":88574,"freshness":"FRESH","line1":"1 65683U 25212H   26144.96267874  .00228680  00000+0  73949-2 0  9995","line2":"2 65683  53.1611 351.2279 0000973  87.8134 272.2979 15.30650175 38873","mean_motion":15.30650175,"eccentricity":9.73e-5,"inclination_deg":53.1611,"raan_deg":351.2279,"arg_perigee_deg":87.8134,"mean_anomaly_deg":272.2979,"bstar":0.0073949,"rev_number":3887,"period_min":94.077668661293,"perigee_km":473.20455705577,"apogee_km":474.53795786267,"semimajor_km":6852.0082574592,"source":"CELESTRAK","updated_at":"2026-05-25T13:38:20.894887Z"}}}